This is the latest recevied weather packets stored in our database for station/object R1ZCU-14. If no packets are shown the sender has not sent any weather packets the latest 10 day(s).
| Time | Temp. | Humidity | Pressure | Rain* | Wind** | Luminosity | Snow |
|---|---|---|---|---|---|---|---|
| 1778001137 | 2.22° C | - | 992.1 hPa | - | - | - | - |
| 1778000537 | 2.78° C | 96% | 992 hPa | - | - | - | - |
| 1777999936 | 2.78° C | 95% | 992 hPa | - | - | - | - |
| 1777999336 | 2.78° C | 91% | 991.8 hPa | - | - | - | - |
| 1777998735 | 3.33° C | 87% | 991.9 hPa | - | - | - | - |
| 1777998135 | 3.33° C | 83% | 991.8 hPa | - | - | - | - |
| 1777997534 | 3.33° C | 82% | 991.7 hPa | - | - | - | - |
| 1777996934 | 3.33° C | 82% | 991.6 hPa | - | - | - | - |
| 1777996333 | 3.33° C | 80% | 991.5 hPa | - | - | - | - |
| 1777995733 | 3.89° C | 75% | 991.3 hPa | - | - | - | - |
| 1777995132 | 3.89° C | 77% | 991.2 hPa | - | - | - | - |
| 1777994532 | 3.89° C | 75% | 991.2 hPa | - | - | - | - |
| 1777993931 | 3.89° C | 75% | 991.1 hPa | - | - | - | - |
| 1777993331 | 3.89° C | 73% | 990.9 hPa | - | - | - | - |
| 1777992730 | 3.89° C | 74% | 991.4 hPa | - | - | - | - |
| 1777992130 | 4.44° C | 76% | 990.7 hPa | - | - | - | - |
| 1777991529 | 4.44° C | 71% | 990.7 hPa | - | - | - | - |
| 1777990929 | 4.44° C | 70% | 990.6 hPa | - | - | - | - |
| 1777990328 | 4.44° C | 74% | 990.5 hPa | - | - | - | - |
| 1777989728 | 5° C | 70% | 990.4 hPa | - | - | - | - |
| 1777989127 | 5° C | 74% | 990.2 hPa | - | - | - | - |
| 1777988527 | 5° C | 71% | 990.2 hPa | - | - | - | - |
| 1777987926 | 5° C | 72% | 990.2 hPa | - | - | - | - |
| 1777987326 | 5° C | 74% | 990 hPa | - | - | - | - |
| 1777986725 | 5.56° C | 74% | 989.9 hPa | - | - | - | - |
* Rain since midnight (hover to see other rain measurements)
** Current wind speed in m/s (hover to see current wind gust speed)